Meteo pe oră la Dabrowice

Astăzi, 17 Aprilie, Sâmbătă

Timp Temperatura Precipitaţii Vânt Presiune Umiditate
00:00 +4°C° 0 mm 3 m/s 751 mmHg 96%
01:00 +4°C° 0 mm 3 m/s 751 mmHg 96%
02:00 +5°C° 0 mm 3 m/s 751 mmHg 96%
03:00 +5°C° 0 mm 3 m/s 751 mmHg 97%
04:00 +5°C° 0 mm 3 m/s 751 mmHg 97%
05:00 +7°C° 0 mm 3 m/s 751 mmHg 95%
06:00 +6°C° 0 mm 4 m/s 751 mmHg 94%
07:00 +7°C° 0 mm 4 m/s 751 mmHg 92%
08:00 +8°C° 0 mm 4 m/s 752 mmHg 85%
09:00 +10°C° 0 mm 3 m/s 752 mmHg 77%
10:00 +12°C° 0 mm 3 m/s 752 mmHg 70%
11:00 +12°C° 0.5 mm 3 m/s 752 mmHg 69%
12:00 +12°C° 0.5 mm 4 m/s 752 mmHg 67%
13:00 +13°C° 0.5 mm 4 m/s 752 mmHg 66%
14:00 +13°C° 0.5 mm 4 m/s 752 mmHg 66%
15:00 +13°C° 0.5 mm 4 m/s 752 mmHg 65%
16:00 +13°C° 0.5 mm 4 m/s 752 mmHg 64%
17:00 +11°C° 0.2 mm 4 m/s 752 mmHg 72%
18:00 +10°C° 0.2 mm 3 m/s 752 mmHg 80%
19:00 +8°C° 0.2 mm 3 m/s 752 mmHg 88%
20:00 +8°C° 0 mm 3 m/s 753 mmHg 89%
21:00 +7°C° 0 mm 3 m/s 753 mmHg 90%
22:00 +7°C° 0 mm 3 m/s 753 mmHg 91%
23:00 +7°C° 0 mm 3 m/s 753 mmHg 92%

Mâine, 18 Aprilie, Duminică

Timp Temperatura Precipitaţii Vânt Presiune Umiditate
00:00 +5°C° 0 mm 3 m/s 753 mmHg 92%
01:00 +5°C° 0 mm 3 m/s 753 mmHg 93%
02:00 +5°C° 0 mm 3 m/s 753 mmHg 94%
03:00 +6°C° 0 mm 2 m/s 753 mmHg 95%
04:00 +5°C° 0 mm 2 m/s 752 mmHg 95%
05:00 +5°C° 0 mm 3 m/s 753 mmHg 92%
06:00 +7°C° 0 mm 3 m/s 753 mmHg 89%
07:00 +8°C° 0 mm 3 m/s 753 mmHg 86%
08:00 +9°C° 0 mm 3 m/s 753 mmHg 83%
09:00 +10°C° 0 mm 3 m/s 753 mmHg 79%
10:00 +11°C° 0 mm 3 m/s 753 mmHg 76%
11:00 +11°C° 0.1 mm 3 m/s 753 mmHg 75%
12:00 +12°C° 0.1 mm 3 m/s 753 mmHg 74%
13:00 +12°C° 0.1 mm 3 m/s 753 mmHg 73%
14:00 +13°C° 0.5 mm 3 m/s 752 mmHg 74%
15:00 +13°C° 0.5 mm 3 m/s 752 mmHg 76%
16:00 +13°C° 0.5 mm 3 m/s 752 mmHg 78%
17:00 +12°C° 0.2 mm 4 m/s 752 mmHg 80%
18:00 +11°C° 0.2 mm 4 m/s 752 mmHg 83%
19:00 +11°C° 0.2 mm 4 m/s 753 mmHg 85%
20:00 +10°C° 0 mm 4 m/s 753 mmHg 87%
21:00 +8°C° 0 mm 4 m/s 753 mmHg 88%
22:00 +8°C° 0 mm 4 m/s 753 mmHg 90%
23:00 +7°C° 0 mm 4 m/s 753 mmHg 90%

Poimâine, 19 Aprilie, Luni

Timp Temperatura Precipitaţii Vânt Presiune Umiditate
00:00 +8°C° 0 mm 3 m/s 753 mmHg 90%
01:00 +8°C° 0 mm 3 m/s 753 mmHg 90%
02:00 +8°C° 0 mm 3 m/s 753 mmHg 90%
03:00 +8°C° 0 mm 3 m/s 753 mmHg 90%
04:00 +7°C° 0 mm 4 m/s 753 mmHg 90%
05:00 +7°C° 0 mm 4 m/s 753 mmHg 87%
06:00 +7°C° 0 mm 4 m/s 753 mmHg 85%
07:00 +7°C° 0 mm 4 m/s 753 mmHg 82%
08:00 +9°C° 0 mm 5 m/s 753 mmHg 75%
09:00 +10°C° 0 mm 6 m/s 752 mmHg 68%
10:00 +11°C° 0 mm 7 m/s 752 mmHg 61%
11:00 +11°C° 0 mm 6 m/s 752 mmHg 61%
12:00 +12°C° 0 mm 5 m/s 752 mmHg 61%
13:00 +12°C° 0 mm 5 m/s 752 mmHg 60%
14:00 +12°C° 0 mm 5 m/s 752 mmHg 63%
15:00 +10°C° 0 mm 5 m/s 751 mmHg 65%
16:00 +10°C° 0 mm 5 m/s 751 mmHg 68%
17:00 +9°C° 0 mm 5 m/s 751 mmHg 71%
18:00 +8°C° 0 mm 4 m/s 751 mmHg 74%
19:00 +7°C° 0 mm 4 m/s 751 mmHg 78%
20:00 +8°C° 0 mm 3 m/s 751 mmHg 80%
21:00 +7°C° 0 mm 3 m/s 751 mmHg 82%
22:00 +5°C° 0 mm 3 m/s 751 mmHg 85%
23:00 +5°C° 0 mm 3 m/s 751 mmHg 83%

20 Aprilie, Marţi

Timp Temperatura Precipitaţii Vânt Presiune Umiditate
00:00 +7°C° 0 mm 3 m/s 750 mmHg 81%
01:00 +7°C° 0 mm 2 m/s 750 mmHg 79%
02:00 +7°C° 0 mm 2 m/s 750 mmHg 78%
03:00 +7°C° 0 mm 2 m/s 750 mmHg 77%
04:00 +7°C° 0 mm 3 m/s 749 mmHg 76%
05:00 +7°C° 0 mm 2 m/s 749 mmHg 76%
06:00 +7°C° 0 mm 2 m/s 749 mmHg 77%
07:00 +7°C° 0 mm 2 m/s 749 mmHg 77%
08:00 +8°C° 0.1 mm 3 m/s 749 mmHg 71%
09:00 +10°C° 0.1 mm 3 m/s 748 mmHg 65%
10:00 +11°C° 0.1 mm 3 m/s 748 mmHg 59%
11:00 +11°C° 0.2 mm 3 m/s 748 mmHg 59%
12:00 +11°C° 0.2 mm 3 m/s 747 mmHg 59%
13:00 +11°C° 0.2 mm 3 m/s 747 mmHg 60%
14:00 +11°C° 0.2 mm 3 m/s 747 mmHg 60%
15:00 +11°C° 0.2 mm 4 m/s 746 mmHg 61%
16:00 +11°C° 0.2 mm 4 m/s 746 mmHg 62%
17:00 +10°C° 0.2 mm 4 m/s 746 mmHg 69%
18:00 +9°C° 0.2 mm 3 m/s 746 mmHg 76%
19:00 +8°C° 0.2 mm 3 m/s 746 mmHg 82%
20:00 +7°C° 0 mm 3 m/s 746 mmHg 86%
21:00 +5°C° 0 mm 3 m/s 745 mmHg 89%
22:00 +4°C° 0 mm 3 m/s 745 mmHg 92%
23:00 +3°C° 0 mm 3 m/s 745 mmHg 92%

21 Aprilie, Miercuri

Timp Temperatura Precipitaţii Vânt Presiune Umiditate
00:00 +3°C° 0 mm 3 m/s 745 mmHg 92%
01:00 +2°C° 0 mm 3 m/s 744 mmHg 91%
02:00 +2°C° 0 mm 3 m/s 744 mmHg 92%
03:00 +2°C° 0 mm 3 m/s 744 mmHg 92%
04:00 +1°C° 0 mm 3 m/s 744 mmHg 92%
05:00 +1°C° 0 mm 4 m/s 744 mmHg 87%
06:00 +3°C° 0 mm 4 m/s 744 mmHg 82%
07:00 +5°C° 0 mm 5 m/s 744 mmHg 77%
08:00 +6°C° 0 mm 5 m/s 744 mmHg 71%
09:00 +7°C° 0 mm 5 m/s 744 mmHg 65%
10:00 +9°C° 0 mm 5 m/s 744 mmHg 60%
11:00 +9°C° 0 mm 5 m/s 744 mmHg 57%
12:00 +10°C° 0 mm 5 m/s 744 mmHg 55%
13:00 +10°C° 0 mm 5 m/s 744 mmHg 52%
14:00 +11°C° 0 mm 4 m/s 744 mmHg 53%
15:00 +11°C° 0 mm 4 m/s 744 mmHg 54%
16:00 +11°C° 0 mm 3 m/s 744 mmHg 55%
17:00 +10°C° 0 mm 3 m/s 745 mmHg 60%
18:00 +9°C° 0 mm 2 m/s 745 mmHg 65%
19:00 +9°C° 0 mm 1 m/s 745 mmHg 70%
20:00 +8°C° 0 mm 1 m/s 745 mmHg 71%
21:00 +8°C° 0 mm 1 m/s 745 mmHg 73%
22:00 +7°C° 0 mm 1 m/s 746 mmHg 75%
23:00 +6°C° 0 mm 2 m/s 746 mmHg 75%

22 Aprilie, Joi

Timp Temperatura Precipitaţii Vânt Presiune Umiditate
00:00 +6°C° 0 mm 2 m/s 746 mmHg 75%
01:00 +6°C° 0 mm 2 m/s 746 mmHg 75%
02:00 +6°C° 0 mm 2 m/s 746 mmHg 77%
03:00 +5°C° 0 mm 2 m/s 746 mmHg 78%
04:00 +5°C° 0 mm 2 m/s 746 mmHg 79%
05:00 +5°C° 0 mm 3 m/s 746 mmHg 76%
06:00 +8°C° 0 mm 3 m/s 746 mmHg 74%
07:00 +9°C° 0 mm 3 m/s 747 mmHg 71%
08:00 +11°C° 0 mm 4 m/s 747 mmHg 66%
09:00 +12°C° 0 mm 5 m/s 747 mmHg 61%
10:00 +14°C° 0 mm 5 m/s 747 mmHg 56%
11:00 +15°C° 0 mm 5 m/s 747 mmHg 54%
12:00 +16°C° 0 mm 5 m/s 747 mmHg 52%
13:00 +17°C° 0 mm 5 m/s 747 mmHg 50%
14:00 +16°C° 0 mm 5 m/s 747 mmHg 52%
15:00 +17°C° 0 mm 4 m/s 747 mmHg 55%
16:00 +17°C° 0 mm 4 m/s 747 mmHg 58%
17:00 +14°C° 0.1 mm 3 m/s 747 mmHg 63%
18:00 +13°C° 0.1 mm 3 m/s 747 mmHg 69%
19:00 +11°C° 0.1 mm 3 m/s 747 mmHg 74%
20:00 +11°C° 0.5 mm 3 m/s 747 mmHg 79%
21:00 +10°C° 0.5 mm 3 m/s 748 mmHg 84%
22:00 +9°C° 0.5 mm 2 m/s 748 mmHg 90%
23:00 +9°C° 0 mm 2 m/s 748 mmHg 91%
Arată mai mult

Formular de consimțământ

Meteoprog și furnizorii noștri de servicii pot stoca și accesa date personale, precum cookies, identificatori de dispozitiv sau alte tehnologii similare pe dispozitivul dumneavoastră și procesa astfel de date pentru a personaliza conținutul și reclamele, dar și pentru a oferi caracteristici de social media și pentru a analiza traficul.

  • Stocarea și/sau accesarea informațiilor pe dispozitivul dumneavoastră

    Cookies, identificatori de dispozitiv sau alte informații pot fi stocate sau accesate pe dispozitiv în scopurile indicate mai sus.

  • Reclame și conținut personalizat, evaluarea reclamelor și a conținutului, informații despre audiențe și dezvoltarea produselor

    Reclamele și conținutul pot fi personalizate pe baza unui profil. Pot fi adăugate date suplimentare pentru a personaliza mai bine reclamele și conținutul. Performanța reclamelor și conținutului poate fi măsurată. Pot fi obținute informații despre utilizatorii care au văzut reclamele și conținutul. Aceste date pot fi utilizate pentru a dezvolta sau îmbunătăți experiența utilizatorilor, sistemele și software-ul.

Dând clic pe ‘Sunt de acord’, permiteți utilizarea cookie-urilor menționate, a identificatorilor de dispozitiv, balizelor web sau altor tehnologii similare. Setările pot fi modificate din browser-ul dispozitivului dumneavoastră.

În anumite scopuri, interesele legitime pot prima asupra consimțământului. Puteți citi mai multe informații în acest sens în Politica privind Confidențialitatea Datelor și Cookie.